| time (UTC) | temp F | wind direction | speed MPH | gust MPH | rain 1hr in | rain 24hr in | rain mn in | humidity % | barometer mb |
| 20260906180818 | 86 | 338 | 9.0 | 10.0 | 0.00 | 0.00 | 0.00 | 63 | 1014.3 |
| 20260906175838 | 85 | 315 | 5.0 | 9.0 | 0.00 | 0.00 | 0.00 | 67 | 1014.3 |
| 20260906174818 | 84 | 338 | 6.0 | 9.0 | 0.00 | 0.00 | 0.00 | 69 | 1014.5 |
| 20260906173818 | 85 | 338 | 6.0 | 9.0 | 0.00 | 0.00 | 0.00 | 66 | 1014.6 |
| 20260906172859 | 85 | 338 | 4.0 | 6.0 | 0.00 | 0.00 | 0.00 | 62 | 1014.6 |
| 20260906171818 | 85 | 23 | 3.0 | 5.0 | 0.00 | 0.00 | 0.00 | 68 | 1014.7 |
| 20260906170820 | 84 | 338 | 6.0 | 8.0 | 0.00 | 0.00 | 0.00 | 66 | 1014.7 |
| 20260906165818 | 83 | 338 | 4.0 | 5.0 | 0.00 | 0.00 | 0.00 | 67 | 1014.7 |
| 20260906164818 | 84 | 338 | 4.0 | 6.0 | 0.00 | 0.00 | 0.00 | 65 | 1014.7 |
| 20260906163819 | 86 | 338 | 6.0 | 9.0 | 0.00 | 0.00 | 0.00 | 64 | 1014.6 |
| 20260906162818 | 85 | 338 | 4.0 | 8.0 | 0.00 | 0.00 | 0.00 | 68 | 1014.6 |
| 20260906161820 | 84 | 338 | 4.0 | 8.0 | 0.00 | 0.00 | 0.00 | 70 | 1014.5 |
| 20260906160818 | 84 | 315 | 6.0 | 9.0 | 0.00 | 0.00 | 0.00 | 68 | 1014.6 |
| 20260906155818 | 84 | 338 | 5.0 | 9.0 | 0.00 | 0.00 | 0.00 | 68 | 1014.7 |
| 20260906154819 | 84 | 338 | 4.0 | 6.0 | 0.00 | 0.00 | 0.00 | 69 | 1014.8 |
| 20260906153818 | 83 | 315 | 7.0 | 10.0 | 0.00 | 0.00 | 0.00 | 70 | 1015.0 |
| 20260906152820 | 83 | 315 | 5.0 | 6.0 | 0.00 | 0.00 | 0.00 | 71 | 1014.8 |
| 20260906151840 | 82 | 338 | 5.0 | 6.0 | 0.00 | 0.00 | 0.00 | 71 | 1014.8 |
| 20260906150818 | 82 | 338 | 4.0 | 5.0 | 0.00 | 0.00 | 0.00 | 72 | 1014.8 |
| 20260906145818 | 82 | 338 | 2.0 | 3.0 | 0.00 | 0.00 | 0.00 | 72 | 1014.7 |
| 20260906144820 | 81 | 338 | 3.0 | 5.0 | 0.00 | 0.00 | 0.00 | 70 | 1014.7 |
| 20260906143820 | 80 | 338 | 3.0 | 4.0 | 0.00 | 0.00 | 0.00 | 75 | 1014.6 |
| 20260906142838 | 78 | 90 | 2.0 | 3.0 | 0.00 | 0.00 | 0.00 | 76 | 1014.6 |
| 20260906141820 | 77 | 315 | 4.0 | 8.0 | 0.00 | 0.00 | 0.00 | 79 | 1014.5 |
| 20260906140820 | 76 | 338 | 6.0 | 8.0 | 0.00 | 0.00 | 0.00 | 80 | 1014.4 |
| 20260906135900 | 75 | 315 | 4.0 | 5.0 | 0.00 | 0.00 | 0.00 | 84 | 1014.4 |
| 20260906134820 | 73 | 315 | 1.0 | 2.0 | 0.00 | 0.00 | 0.00 | 85 | 1014.3 |
| 20260906133820 | 72 | 338 | 4.0 | 6.0 | 0.00 | 0.00 | 0.00 | 86 | 1014.3 |
| 20260906132820 | 71 | 338 | 2.0 | 3.0 | 0.00 | 0.00 | 0.00 | 87 | 1014.2 |
| 20260906131820 | 70 | 315 | 3.0 | 5.0 | 0.00 | 0.00 | 0.00 | 88 | 1014.1 |
| 20260906130820 | 69 | 315 | 4.0 | 5.0 | 0.00 | 0.00 | 0.00 | 89 | 1014.2 |
| 20260906125840 | 69 | 338 | 3.0 | 5.0 | 0.00 | 0.00 | 0.00 | 90 | 1014.1 |
| 20260906124840 | 68 | 315 | 3.0 | 5.0 | 0.00 | 0.00 | 0.00 | 91 | 1014.2 |
| 20260906123820 | 67 | 315 | 4.0 | 5.0 | 0.00 | 0.00 | 0.00 | 92 | 1014.1 |
| 20260906122818 | 67 | 338 | 3.0 | 5.0 | 0.00 | 0.00 | 0.00 | 92 | 1014.0 |
| 20260906121820 | 66 | 315 | 4.0 | 5.0 | 0.00 | 0.00 | 0.00 | 93 | 1014.1 |
| 20260906120820 | 66 | 338 | 4.0 | 6.0 | 0.00 | 0.00 | 0.00 | 94 | 1013.9 |
| 20260906115820 | 65 | 315 | 2.0 | 4.0 | 0.00 | 0.00 | 0.00 | 94 | 1013.9 |
| 20260906114840 | 64 | 315 | 3.0 | 5.0 | 0.00 | 0.00 | 0.00 | 95 | 1013.7 |
| 20260906113820 | 64 | 338 | 2.0 | 3.0 | 0.00 | 0.00 | 0.00 | 95 | 1013.6 |
| 20260906112818 | 64 | 0.0 | 1.0 | 0.00 | 0.00 | 0.00 | 94 | 1013.5 | |
| 20260906111820 | 63 | 338 | 1.0 | 2.0 | 0.00 | 0.00 | 0.00 | 94 | 1013.5 |
| 20260906110820 | 63 | 338 | 2.0 | 3.0 | 0.00 | 0.00 | 0.00 | 94 | 1013.3 |
| 20260906105820 | 63 | 0.0 | 0.0 | 0.00 | 0.00 | 0.00 | 94 | 1013.3 | |
| 20260906104820 | 63 | 338 | 1.0 | 2.0 | 0.00 | 0.00 | 0.00 | 94 | 1013.0 |
| 20260906103820 | 63 | 338 | 1.0 | 2.0 | 0.00 | 0.00 | 0.00 | 94 | 1012.9 |
| 20260906102819 | 63 | 338 | 2.0 | 3.0 | 0.00 | 0.00 | 0.00 | 94 | 1012.7 |
| 20260906101839 | 63 | 338 | 1.0 | 2.0 | 0.00 | 0.00 | 0.00 | 94 | 1012.6 |
| 20260906100820 | 63 | 0.0 | 0.0 | 0.00 | 0.00 | 0.00 | 93 | 1012.5 | |
| 20260906095819 | 63 | 0.0 | 0.0 | 0.00 | 0.00 | 0.00 | 93 | 1012.4 | |
| 20260906094820 | 64 | 338 | 1.0 | 3.0 | 0.00 | 0.00 | 0.00 | 93 | 1012.2 |
| 20260906093819 | 64 | 0.0 | 0.0 | 0.00 | 0.00 | 0.00 | 93 | 1012.1 | |
| 20260906092819 | 64 | 0.0 | 0.0 | 0.00 | 0.00 | 0.00 | 93 | 1011.9 | |
| 20260906091819 | 64 | 0.0 | 0.0 | 0.00 | 0.00 | 0.00 | 93 | 1011.9 | |
| 20260906090820 | 64 | 0.0 | 0.0 | 0.00 | 0.00 | 0.00 | 92 | 1011.7 | |
| 20260906085839 | 64 | 0.0 | 2.0 | 0.00 | 0.00 | 0.00 | 92 | 1011.8 | |
| 20260906084820 | 64 | 0.0 | 0.0 | 0.00 | 0.00 | 0.00 | 92 | 1011.8 | |
| 20260906083819 | 65 | 0.0 | 1.0 | 0.00 | 0.00 | 0.00 | 92 | 1011.8 | |
| 20260906082819 | 64 | 338 | 2.0 | 3.0 | 0.00 | 0.00 | 0.00 | 92 | 1011.7 |
| 20260906081859 | 65 | 338 | 1.0 | 2.0 | 0.00 | 0.00 | 0.00 | 92 | 1011.6 |
| 20260906080859 | 65 | 0.0 | 0.0 | 0.00 | 0.00 | 0.00 | 92 | 1011.6 | |
| 20260906075839 | 65 | 338 | 1.0 | 2.0 | 0.00 | 0.00 | 0.00 | 92 | 1011.5 |
| 20260906074819 | 65 | 338 | 1.0 | 3.0 | 0.00 | 0.00 | 0.00 | 92 | 1011.4 |
| 20260906073819 | 65 | 0 | 1.0 | 2.0 | 0.00 | 0.00 | 0.00 | 93 | 1011.4 |
| 20260906072819 | 65 | 338 | 1.0 | 3.0 | 0.00 | 0.00 | 0.00 | 93 | 1011.3 |
| 20260906071819 | 64 | 315 | 3.0 | 5.0 | 0.00 | 0.00 | 0.00 | 94 | 1011.4 |
| 20260906070819 | 64 | 315 | 1.0 | 3.0 | 0.00 | 0.00 | 0.00 | 95 | 1011.4 |
| 20260906065819 | 65 | 338 | 2.0 | 3.0 | 0.00 | 0.00 | 0.00 | 96 | 1011.4 |
| 20260906064819 | 65 | 315 | 1.0 | 2.0 | 0.00 | 0.00 | 0.00 | 96 | 1011.4 |
| 20260906063819 | 65 | 0.0 | 0.0 | 0.00 | 0.00 | 0.00 | 96 | 1011.4 | |
| 20260906062819 | 65 | 0.0 | 0.0 | 0.00 | 0.00 | 0.00 | 96 | 1011.4 | |
| 20260906061819 | 65 | 0.0 | 0.0 | 0.00 | 0.00 | 0.00 | 96 | 1011.4 | |
| 20260906060819 | 65 | 0.0 | 0.0 | 0.00 | 0.00 | 0.00 | 96 | 1011.4 | |
| 20260906055819 | 66 | 0.0 | 0.0 | 0.00 | 0.00 | 0.00 | 96 | 1011.6 | |
| 20260906054839 | 66 | 0.0 | 0.0 | 0.00 | 0.00 | 0.00 | 96 | 1011.5 | |
| 20260906053819 | 66 | 0.0 | 0.0 | 0.00 | 0.00 | 0.00 | 96 | 1011.7 | |
| 20260906052839 | 66 | 0.0 | 0.0 | 0.00 | 0.00 | 0.00 | 96 | 1011.8 | |
| 20260906051818 | 66 | 0.0 | 0.0 | 0.00 | 0.00 | 0.00 | 96 | 1011.8 | |
| 20260906050819 | 67 | 0.0 | 0.0 | 0.00 | 0.00 | 0.00 | 95 | 1011.8 | |
| 20260906045839 | 67 | 0.0 | 0.0 | 0.00 | 0.00 | 0.00 | 95 | 1011.9 | |
| 20260906044838 | 67 | 0.0 | 0.0 | 0.00 | 0.00 | 0.00 | 95 | 1011.8 | |
| 20260906043819 | 68 | 0.0 | 0.0 | 0.00 | 0.00 | 0.00 | 96 | 1011.9 | |
| 20260906042819 | 68 | 0.0 | 0.0 | 0.00 | 0.00 | 0.00 | 96 | 1011.9 | |
| 20260906041818 | 68 | 0.0 | 0.0 | 0.00 | 0.00 | 0.00 | 96 | 1012.0 | |
| 20260906040818 | 68 | 0.0 | 0.0 | 0.00 | 0.00 | 0.00 | 96 | 1011.9 | |
| 20260906035818 | 68 | 0.0 | 0.0 | 0.00 | 0.00 | 0.00 | 96 | 1012.0 | |
| 20260906034840 | 69 | 0.0 | 0.0 | 0.00 | 0.00 | 0.00 | 96 | 1012.1 | |
| 20260906033820 | 68 | 0.0 | 0.0 | 0.00 | 0.00 | 0.00 | 95 | 1012.0 | |
| 20260906032840 | 69 | 0.0 | 0.0 | 0.00 | 0.00 | 0.00 | 94 | 1012.1 | |
| 20260906031820 | 69 | 0.0 | 0.0 | 0.00 | 0.00 | 0.00 | 95 | 1012.0 | |
| 20260906030818 | 69 | 0.0 | 0.0 | 0.00 | 0.00 | 0.00 | 94 | 1012.2 | |
| 20260906025820 | 69 | 0.0 | 0.0 | 0.00 | 0.00 | 0.00 | 93 | 1012.0 | |
| 20260906024840 | 69 | 0.0 | 0.0 | 0.00 | 0.00 | 0.00 | 93 | 1011.9 | |
| 20260906023818 | 69 | 0.0 | 0.0 | 0.00 | 0.00 | 0.00 | 93 | 1012.0 | |
| 20260906022820 | 69 | 0.0 | 0.0 | 0.00 | 0.00 | 0.00 | 93 | 1012.0 | |
| 20260906021840 | 70 | 0.0 | 0.0 | 0.00 | 0.00 | 0.00 | 92 | 1012.0 | |
| 20260906020820 | 70 | 0.0 | 0.0 | 0.00 | 0.00 | 0.00 | 91 | 1011.9 | |
| 20260906015820 | 70 | 0.0 | 0.0 | 0.00 | 0.00 | 0.00 | 91 | 1011.8 | |
| 20260906014820 | 70 | 0.0 | 0.0 | 0.00 | 0.00 | 0.00 | 90 | 1011.6 | |
| 20260906013820 | 71 | 0.0 | 0.0 | 0.00 | 0.00 | 0.00 | 90 | 1011.5 | |
| 20260906012840 | 71 | 0.0 | 0.0 | 0.00 | 0.00 | 0.00 | 89 | 1011.4 | |
| 20260906011819 | 71 | 0.0 | 0.0 | 0.00 | 0.00 | 0.00 | 88 | 1011.3 | |
| 20260906010820 | 72 | 0.0 | 0.0 | 0.00 | 0.00 | 0.00 | 88 | 1011.3 | |
| 20260906005819 | 72 | 0.0 | 0.0 | 0.00 | 0.00 | 0.00 | 88 | 1011.2 | |
| 20260906004820 | 72 | 0.0 | 0.0 | 0.00 | 0.00 | 0.00 | 88 | 1011.1 | |
| 20260906003820 | 73 | 0.0 | 0.0 | 0.00 | 0.00 | 0.00 | 87 | 1011.1 | |
| 20260906002820 | 73 | 0.0 | 0.0 | 0.00 | 0.00 | 0.00 | 87 | 1011.2 | |
| 20260906001819 | 73 | 0.0 | 0.0 | 0.00 | 0.00 | 0.00 | 86 | 1011.0 | |
| 20260906000820 | 73 | 0.0 | 0.0 | 0.00 | 0.00 | 0.00 | 86 | 1010.8 | |
| 20260905235820 | 74 | 0.0 | 0.0 | 0.00 | 0.00 | 0.00 | 86 | 1010.8 | |
| 20260905234819 | 74 | 0.0 | 0.0 | 0.00 | 0.00 | 0.00 | 87 | 1010.7 | |
| 20260905233819 | 74 | 0.0 | 0.0 | 0.00 | 0.00 | 0.00 | 85 | 1010.6 | |
| 20260905232819 | 75 | 0.0 | 0.0 | 0.00 | 0.00 | 0.00 | 86 | 1010.6 | |
| 20260905231819 | 75 | 0.0 | 0.0 | 0.00 | 0.00 | 0.00 | 85 | 1010.7 | |
| 20260905230819 | 76 | 0.0 | 0.0 | 0.00 | 0.00 | 0.00 | 84 | 1010.6 | |
| 20260905225819 | 76 | 0.0 | 0.0 | 0.00 | 0.00 | 0.00 | 83 | 1010.6 | |
| 20260905224839 | 77 | 0.0 | 0.0 | 0.00 | 0.00 | 0.00 | 82 | 1010.5 | |
| 20260905223819 | 77 | 0.0 | 0.0 | 0.00 | 0.00 | 0.00 | 80 | 1010.3 | |
| 20260905222839 | 78 | 0.0 | 0.0 | 0.00 | 0.00 | 0.00 | 80 | 1010.3 | |
| 20260905221820 | 78 | 338 | 1.0 | 2.0 | 0.00 | 0.00 | 0.00 | 78 | 1010.2 |
| 20260905220839 | 79 | 0.0 | 1.0 | 0.00 | 0.00 | 0.00 | 80 | 1010.1 | |
| 20260905215819 | 79 | 338 | 1.0 | 2.0 | 0.00 | 0.00 | 0.00 | 77 | 1010.2 |
| 20260905214819 | 79 | 338 | 2.0 | 3.0 | 0.00 | 0.00 | 0.00 | 75 | 1010.0 |
| 20260905213819 | 79 | 338 | 3.0 | 4.0 | 0.00 | 0.00 | 0.00 | 75 | 1010.1 |
| 20260905212819 | 79 | 338 | 2.0 | 2.0 | 0.00 | 0.00 | 0.00 | 73 | 1009.9 |
| 20260905211819 | 79 | 338 | 5.0 | 8.0 | 0.00 | 0.00 | 0.00 | 73 | 1009.9 |
| 20260905210819 | 80 | 338 | 4.0 | 5.0 | 0.00 | 0.00 | 0.00 | 72 | 1009.7 |
| 20260905205839 | 80 | 338 | 5.0 | 9.0 | 0.00 | 0.00 | 0.00 | 72 | 1009.8 |
| 20260905204819 | 80 | 315 | 3.0 | 4.0 | 0.00 | 0.00 | 0.00 | 73 | 1009.7 |
| 20260905203819 | 81 | 338 | 5.0 | 6.0 | 0.00 | 0.00 | 0.00 | 74 | 1009.8 |
| 20260905202819 | 81 | 315 | 4.0 | 4.0 | 0.00 | 0.00 | 0.00 | 74 | 1009.9 |
| 20260905201819 | 81 | 338 | 5.0 | 6.0 | 0.00 | 0.00 | 0.00 | 72 | 1009.7 |
| 20260905200819 | 82 | 338 | 7.0 | 9.0 | 0.00 | 0.00 | 0.00 | 72 | 1009.6 |
| 20260905195819 | 82 | 315 | 4.0 | 4.0 | 0.00 | 0.00 | 0.00 | 69 | 1009.7 |
| 20260905194819 | 82 | 338 | 4.0 | 6.0 | 0.00 | 0.00 | 0.00 | 70 | 1009.6 |
| 20260905193819 | 83 | 315 | 2.0 | 3.0 | 0.00 | 0.00 | 0.00 | 71 | 1009.5 |
| 20260905192819 | 83 | 338 | 3.0 | 5.0 | 0.00 | 0.00 | 0.00 | 73 | 1009.7 |
| 20260905191839 | 84 | 338 | 4.0 | 7.0 | 0.00 | 0.00 | 0.00 | 72 | 1009.9 |
| 20260905190819 | 84 | 338 | 3.0 | 5.0 | 0.00 | 0.00 | 0.00 | 70 | 1010.2 |
| 20260905185839 | 83 | 0 | 3.0 | 4.0 | 0.00 | 0.00 | 0.00 | 72 | 1010.5 |
| 20260905184819 | 83 | 338 | 2.0 | 4.0 | 0.00 | 0.00 | 0.00 | 72 | 1010.7 |
| 20260905183819 | 84 | 338 | 1.0 | 2.0 | 0.00 | 0.00 | 0.00 | 67 | 1010.9 |
| 20260905182839 | 84 | 0.0 | 1.0 | 0.00 | 0.00 | 0.00 | 67 | 1011.1 | |
| 20260905181818 | 84 | 338 | 2.0 | 3.0 | 0.00 | 0.00 | 0.00 | 68 | 1011.1 |